Theta_e
337 336 335 317 314 325 326 324 325 326 329 327 326 322 322 328 326 323 330 332 330 333 333 329 333 335 332 325 325 322 319 317 315 314 314 320 320 318 321 319 319 322 319
337 337 335 318 319 323 327 323 323 325 327 328 326 324 320 322 324 322 323 328 330 330 332 334 335 333 326 324 322 321 319 317 315 312 318 321 321 321 320 318 318 318 319
337 336 335 323 328 324 323 324 326 328 329 329 324 318 318 319 318 318 322 323 328 330 331 334 334 330 325 323 322 321 319 317 311 308 319 321 321 320 318 318 318 319 318
337 335 335 328 329 324 324 323 325 329 329 328 319 317 317 315 314 316 318 326 329 330 332 332 332 330 327 325 324 322 320 314 309 309 319 320 319 319 318 317 317 316 318
337 336 335 328 328 328 322 324 325 326 327 326 325 322 319 321 321 318 323 328 329 330 332 330 331 329 328 326 325 323 319 316 310 312 319 320 319 317 316 316 316 316 316
336 337 335 329 328 328 325 325 328 328 328 327 324 322 325 328 326 323 317 327 329 329 331 330 326 324 323 324 324 323 319 316 310 314 315 319 318 316 315 311 316 315 314
336 334 334 325 326 325 320 324 325 322 319 323 323 319 327 329 326 322 317 325 327 328 329 328 324 323 322 322 321 321 320 317 316 313 318 319 317 317 317 315 315 311 316
336 334 334 325 322 323 319 323 322 317 321 317 318 322 327 329 326 320 319 323 324 325 328 329 326 323 322 322 321 321 321 320 319 316 318 318 317 316 314 313 315 314 315
335 334 333 327 323 322 327 325 325 321 316 322 325 323 326 329 327 320 323 321 324 325 328 329 327 324 323 323 322 320 320 319 319 316 317 317 317 315 314 307 310 311 315
334 334 332 327 325 323 326 325 326 326 321 323 323 324 326 330 327 320 319 320 320 323 326 329 327 325 324 323 322 320 319 319 318 318 317 316 317 314 313 305 305 309 307
334 333 333 327 328 324 322 325 327 327 325 321 323 322 325 328 328 322 322 319 319 320 319 325 328 326 325 323 322 320 318 318 318 318 318 313 317 315 313 305 305 304 304
333 333 333 330 326 324 324 325 326 327 327 324 322 322 322 325 326 325 322 322 320 317 319 322 327 326 325 323 321 319 319 318 318 318 317 314 315 316 315 307 304 304 303
334 333 333 332 326 325 324 323 325 326 326 323 324 322 318 321 321 326 323 322 322 318 317 321 324 325 325 322 320 318 319 318 317 317 316 315 314 315 315 309 305 303 305
333 332 332 331 331 327 326 325 323 324 323 322 324 325 321 319 320 326 324 321 322 320 318 318 321 322 322 321 320 318 318 318 316 316 316 315 314 313 313 311 308 302 302
333 332 331 331 331 329 328 325 319 320 318 320 323 324 320 317 320 325 325 321 322 321 320 319 318 318 318 318 318 318 318 318 317 316 316 315 315 314 312 314 312 308 302
331 332 332 332 331 331 330 329 327 322 318 318 316 316 319 314 317 320 321 323 322 321 320 319 318 317 316 316 317 318 319 319 318 316 316 316 315 315 314 312 314 315 312
329 330 332 331 331 329 331 330 329 327 324 319 320 315 312 313 315 315 319 320 322 321 319 318 317 318 317 317 317 317 317 318 317 318 317 317 316 316 315 314 312 313 314
328 327 328 329 330 330 330 330 329 328 327 324 320 321 314 313 317 315 315 318 320 321 320 319 318 318 318 317 317 317 316 316 316 317 317 317 317 316 315 314 313 311 312
326 327 326 325 326 327 329 329 329 328 327 327 323 321 320 315 314 315 315 315 319 322 321 320 318 318 317 317 317 317 316 313 315 316 315 316 316 315 314 313 313 312 311
316 325 329 326 323 326 328 328 329 328 328 327 327 326 322 320 318 314 313 313 315 318 320 321 320 318 318 318 317 317 316 315 314 314 315 315 315 314 313 313 312 312 311
314 317 323 326 326 324 321 325 329 329 326 328 326 327 325 322 321 321 317 313 312 315 318 319 320 320 318 317 316 315 313 312 311 312 312 312 312 312 312 311 311 311 311
309 312 316 319 327 327 325 324 327 326 325 328 326 327 327 325 322 321 321 320 315 315 318 319 319 318 318 317 316 316 315 315 315 314 313 313 313 312 312 311 310 310 310
305 308 312 315 321 324 326 327 328 326 326 327 324 325 325 325 325 323 323 322 321 320 318 318 318 318 317 316 316 316 316 315 314 315 311 314 316 313 310 312 310 310 310
303 304 306 308 312 320 322 324 326 327 326 324 323 323 324 324 323 325 324 324 322 322 322 321 321 320 319 317 317 317 316 316 315 315 315 316 315 316 316 317 316 315 315
301 303 304 305 307 311 320 322 323 325 327 325 326 326 324 325 322 325 325 324 324 323 323 322 322 322 321 320 318 318 318 317 317 316 315 315 316 316 317 317 317 317 317
300 301 302 303 304 305 311 319 322 323 324 325 325 326 325 326 324 322 323 323 324 325 324 323 323 323 322 323 321 319 320 318 318 318 317 318 318 318 318 318 318 318 318
Wind_Speed
23 25 19 17 17 19 18 21 18 16 15 13 14 14 15 14 14 13 14 12 13 14 15 18 20 23 20 17 16 17 16 16 14 13 16 18 19 19 21 18 19 17 14
27 24 20 17 17 21 19 19 18 15 14 13 14 12 13 13 12 13 12 11 12 13 15 18 23 21 16 17 15 15 15 14 12 13 18 20 17 19 16 18 16 16 16
28 24 21 19 18 19 21 19 17 15 15 14 12 12 12 11 11 13 14 13 12 12 16 21 20 16 16 15 14 14 13 12 12 13 20 15 16 17 17 15 17 17 15
28 25 23 20 18 18 19 20 20 18 16 14 12 11 9 8 10 13 15 18 15 14 17 17 17 14 13 12 12 12 11 11 11 13 14 15 14 15 16 11 14 15 13
28 27 24 21 18 18 20 20 20 18 16 14 11 10 12 12 13 12 15 18 16 16 16 14 14 11 9 9 10 10 10 10 9 12 14 13 12 13 13 13 12 14 14
29 25 23 22 22 20 21 21 21 19 17 16 14 10 15 12 11 11 13 18 16 16 15 12 12 11 9 7 7 7 8 9 10 12 13 15 12 12 12 14 17 12 13
29 25 21 23 22 20 17 20 19 17 15 16 15 16 16 13 12 9 11 19 17 15 13 10 11 12 10 7 6 7 8 9 9 10 12 11 11 12 12 12 13 11 11
29 25 22 20 21 19 17 18 17 12 14 16 16 16 15 13 13 9 10 20 17 16 14 11 11 12 12 9 8 8 8 7 9 10 11 9 11 9 10 11 10 12 10
28 25 22 21 21 18 17 17 16 11 15 18 15 16 14 13 14 11 11 19 15 15 13 13 11 11 9 9 7 6 6 7 8 8 9 8 9 9 9 10 11 9 11
26 24 21 21 20 20 19 20 16 13 13 15 16 16 13 14 15 13 11 12 13 13 13 13 12 9 8 9 7 5 6 7 6 7 7 6 8 6 7 8 9 9 8
25 24 21 20 20 18 18 19 16 16 14 14 14 14 13 13 14 14 9 9 9 10 12 12 12 10 9 7 5 2 2 5 5 5 4 3 7 4 6 6 7 7 7
25 27 20 18 18 18 18 20 19 18 17 16 16 14 13 13 13 12 12 8 7 8 10 13 12 10 9 8 5 3 4 2 2 4 2 5 6 3 3 3 5 5 6
30 26 21 17 17 19 16 20 18 20 20 18 17 15 14 14 16 15 14 11 10 10 12 13 14 12 11 9 6 6 6 3 3 1 3 7 2 3 2 1 2 3 2
27 24 22 18 15 18 16 19 15 18 20 21 19 18 15 13 18 17 14 13 12 12 13 13 13 14 12 11 8 8 8 8 6 4 5 7 7 4 4 4 2 1 1
22 23 23 20 18 15 17 17 18 18 19 21 19 18 17 16 18 21 17 16 14 13 13 12 12 12 12 12 11 10 11 10 10 8 7 9 9 8 7 7 7 5 3
14 20 22 24 22 20 19 18 17 17 20 19 19 19 18 16 18 19 17 18 16 15 14 13 13 13 12 12 11 12 13 14 14 13 12 12 13 12 10 8 10 9 8
12 14 18 22 23 22 21 19 19 19 19 20 19 18 18 18 18 19 17 17 16 16 15 14 14 14 14 13 13 13 14 15 16 17 16 16 17 16 14 12 11 12 13
11 9 14 15 16 20 24 23 22 21 22 21 21 20 19 19 18 18 18 18 17 16 16 16 16 16 15 15 15 15 15 18 19 19 20 20 20 20 19 17 15 14 15
13 16 14 14 13 15 20 23 25 26 26 25 25 23 21 20 19 18 18 19 19 18 17 17 18 17 17 17 17 17 18 19 20 22 22 23 22 23 22 21 19 19 18
5 15 15 18 18 20 19 21 27 28 32 32 29 27 24 22 20 19 20 20 20 20 20 19 19 19 20 18 18 19 22 22 23 24 24 24 25 25 24 24 23 23 22
3 7 16 20 20 25 19 22 29 26 28 40 29 32 26 24 23 22 22 21 21 23 21 18 18 20 20 19 19 19 21 21 23 24 23 24 25 25 25 26 25 26 25
5 3 6 14 20 22 24 21 23 18 24 34 33 31 32 26 26 25 25 23 22 24 24 23 22 21 21 21 21 19 16 14 15 13 17 20 22 25 25 26 27 27 27
6 5 5 5 12 16 23 26 22 21 16 20 24 24 25 29 35 31 29 27 26 25 25 26 25 24 23 22 23 18 8 6 10 10 6 13 17 15 13 14 19 22 25
10 8 6 7 6 11 15 19 18 21 22 21 25 29 22 22 22 29 31 32 32 30 27 28 27 27 26 28 26 28 26 24 13 13 13 19 25 25 24 23 21 21 22
16 13 11 9 10 8 13 16 21 20 21 23 25 22 21 20 22 24 33 34 36 34 34 34 31 29 30 31 31 30 28 30 30 31 28 23 27 30 28 26 28 28 28
17 15 14 13 12 13 13 16 19 22 23 27 25 24 21 22 23 29 29 30 34 41 40 38 37 35 34 34 36 34 34 29 29 31 34 36 36 36 37 36 36 35 34
Wind_Direction
171 176 172 166 156 151 156 167 165 167 164 161 160 156 157 150 138 147 145 123 125 122 129 123 127 129 124 112 107 95 88 79 72 69 78 88 80 82 86 88 77 77 79
167 177 169 166 156 159 157 163 165 169 168 167 165 171 168 166 157 153 160 147 132 131 137 137 137 137 117 109 102 93 85 77 70 70 81 80 90 84 94 85 84 71 75
167 173 169 162 159 161 165 162 163 163 162 164 171 167 168 171 168 168 167 162 144 136 135 140 143 132 115 106 99 92 83 75 71 78 91 88 91 89 87 83 81 77 76
168 171 169 163 165 162 164 169 167 166 174 171 169 166 177 168 162 160 162 155 144 140 142 148 142 131 115 105 97 90 83 76 76 82 93 92 86 86 86 89 93 89 79
171 174 169 164 170 167 166 167 168 173 165 153 154 156 149 135 132 136 153 151 147 147 148 151 144 135 120 107 97 91 86 80 79 87 94 94 92 101 95 92 82 91 95
175 172 171 169 175 172 174 161 165 164 165 157 162 173 149 154 139 133 156 161 152 155 150 153 149 141 127 112 102 99 91 85 85 89 94 101 98 96 90 86 92 84 97
173 172 169 173 178 182 185 163 163 164 166 160 165 155 154 158 153 134 150 168 162 157 172 166 148 139 122 108 104 107 96 86 86 88 95 99 93 93 90 88 82 76 93
173 171 173 175 180 186 173 158 151 144 163 149 146 158 162 163 157 144 143 171 169 164 173 167 153 146 128 113 106 108 94 84 84 93 100 106 104 99 102 97 94 89 91
176 173 174 169 179 176 164 157 153 138 150 152 154 167 173 167 160 144 136 167 169 172 165 173 164 149 136 121 111 107 99 81 96 93 104 100 105 107 95 91 88 83 95
176 180 178 166 169 169 171 161 161 165 156 165 172 173 174 169 162 152 149 163 188 184 179 179 171 159 147 133 115 113 91 75 94 80 100 125 120 108 97 92 91 87 90
183 180 182 177 173 168 167 170 173 177 171 170 174 182 181 175 167 162 160 165 180 198 189 184 189 174 163 153 137 132 104 88 89 97 112 358 126 131 105 93 95 89 83
188 180 191 187 173 173 171 177 179 188 190 187 189 192 190 180 181 185 167 184 174 186 177 178 190 177 172 183 178 198 175 109 81 88 133 352 136 139 123 98 101 88 76
190 190 196 193 187 181 184 184 187 192 193 199 200 202 201 194 191 188 184 190 182 179 184 184 191 196 199 202 215 203 206 222 236 189 312 343 199 176 214 286 111 89 84
194 202 207 207 210 201 189 190 196 196 205 203 208 210 211 200 192 194 190 198 192 191 191 193 198 208 209 210 220 210 216 231 230 239 264 297 335 267 261 267 244 215 245
193 203 209 209 213 210 208 204 206 204 207 208 213 215 219 214 203 206 202 200 202 204 205 208 212 218 221 223 225 223 222 232 229 233 238 262 292 317 296 259 278 270 247
213 209 209 215 212 220 212 221 227 222 217 217 222 225 226 224 216 219 212 210 209 210 214 216 222 222 224 227 230 233 237 239 238 240 244 259 272 284 293 280 260 254 261
226 228 217 226 218 225 231 227 231 235 234 229 232 232 228 229 222 223 220 217 217 219 219 222 225 228 231 234 239 245 246 246 247 246 252 257 266 274 276 279 271 257 261
209 214 236 214 230 240 237 236 240 237 245 240 235 236 232 230 226 228 225 224 224 224 226 230 233 234 237 241 246 251 254 253 252 252 256 259 263 266 269 270 270 266 262
219 229 234 224 240 255 254 244 244 243 243 246 238 238 234 232 232 232 233 231 231 232 234 237 240 242 246 250 254 259 261 261 255 254 257 260 263 265 266 267 265 265 261
244 221 233 232 229 254 265 261 251 247 240 241 243 243 235 235 235 234 235 235 233 236 239 242 243 244 248 255 262 265 262 258 256 257 260 262 263 264 266 268 268 267 265
322 243 232 229 221 234 256 270 246 226 255 247 244 246 243 235 237 238 240 235 234 237 241 247 251 251 253 255 266 278 282 273 267 266 266 264 266 267 268 268 269 268 268
347 324 248 231 229 232 233 248 250 247 254 253 260 247 252 247 233 234 239 239 238 239 242 245 245 249 249 248 258 276 290 295 290 279 270 272 274 273 271 270 270 270 271
327 299 286 252 226 233 229 236 240 243 228 233 242 253 252 253 237 238 239 241 242 243 247 251 253 251 253 251 255 256 267 257 305 294 277 286 294 295 286 296 288 281 279
318 300 272 266 249 227 230 223 224 233 241 233 244 253 261 245 246 238 242 243 245 244 245 250 254 254 251 251 253 252 260 263 272 290 287 282 284 287 287 291 294 292 291
328 308 287 256 245 242 227 225 224 228 241 243 239 240 240 241 247 235 242 247 246 247 247 250 251 254 256 253 259 259 263 264 266 260 279 286 290 299 298 295 297 295 295
339 322 300 281 257 241 231 224 224 228 228 236 246 241 246 247 236 240 251 243 248 251 253 256 256 257 257 257 256 256 262 258 268 268 267 282 287 289 292 295 295 297 298